Location: Bastrop State Park
(30.1090°N, 97.2819°W)
Time: 15:10:10
(UTC-05:00)

Daily predictions for brighter satellites

Satellite Brightness Start Highest point End
(mag) Time Altitude Azimuth Time Altitude Azimuth Time Altitude Azimuth
BREEZE-M R/B 4.3 20:59:12 10° NNW 21:01:44 18° NNE 21:03:43 10° ENE
USA 186 2.2 20:58:34 10° SSE 21:01:46 44° ENE 21:04:48 10° N
NOSS 2-3 (E) 4.4 20:58:01 10° SW 21:02:23 61° WNW 21:07:13 10° NNE
Thor Agena Rocket 3.5 20:58:29 10° NNE 21:03:32 61° ESE 21:08:30 10° S
SJ-6B 2.9 21:03:36 10° S 21:07:27 80° W 21:11:25 10° NNW
ERS-2 3.6 21:05:43 10° SE 21:08:37 22° ENE 21:11:30 10° NNE
Cosmos 1943 3.7 21:04:15 10° N 21:09:40 45° ENE 21:15:00 10° SE
ATLAS 2AS CENTAUR R/B 3.4 21:05:08 10° S 21:11:59 39° ESE 21:19:17 10° NE
Aureole 1 4.4 21:09:42 10° NNW 21:12:52 84° ENE 21:16:42 10° SSE
Lacrosse 5 1.8 21:08:56 10° SSW 21:13:59 79° SE 21:19:02 10° NE
OAO 3 Rocket 3.8 21:09:09 10° W 21:14:03 59° NNW 21:18:56 10° ENE
SL-8 R/B 3.7 21:10:37 10° SW 21:15:24 67° SE 21:20:12 10° NE
Resurs 01 Rocket 2.1 21:12:15 10° SE 21:16:25 44° ENE 21:20:38 10° N
NOSS 8 (A) 4.3 21:13:06 10° SSW 21:16:45 64° ESE 21:19:54 10° NE
Cosmos 1400 Rocket 2.9 21:12:53 10° S 21:16:51 56° E 21:20:47 10° NNE
Cosmos 2026 Rocket 4.4 21:12:47 10° NNW 21:18:46 64° W 21:24:47 10° S
Aureole 1 Rocket 2.6 21:18:53 10° S 21:21:42 41° ESE 21:24:52 10° NNE
Envisat 4.1 21:20:54 10° S 21:25:42 43° W 21:30:32 10° NNW
Iridium 4 Rocket 4.4 21:21:58 10° SSE 21:27:10 36° E 21:32:05 10° NNE
NOAA 11 4.4 21:22:49 10° SSE 21:28:04 55° ENE 21:33:21 10° N
Cosmos 1844 Rocket 3.4 21:23:13 10° SSE 21:28:08 31° ESE 21:33:03 10° NE
Intercosmos 25 4.4 21:27:57 10° SSW 21:30:57 39° W 21:34:22 10° N
Cosmos 1470 2.7 21:29:13 10° N 21:33:07 89° E 21:37:03 10° S
Aurora 2 Rocket 4.0 21:31:41 10° SW 21:37:17 44° SSE 21:45:05 10° E
Meteor 1-24 Rocket 4.5 21:32:06 10° SSE 21:37:32 37° E 21:43:01 10° NNE
Cosmos 1048 Rocket 4.0 21:33:34 10° S 21:38:48 71° ESE 21:44:08 10° NNE
Cosmos 1825 Rocket 3.7 21:35:12 10° S 21:39:32 54° E 21:43:54 10° NNE
USA 215 3.5 21:40:27 17° ESE 21:45:35 61° NE 21:52:02 10° NNW
Meteor 2-5 Rocket 3.8 21:45:23 10° S 21:51:19 81° E 21:57:16 10° N
Cosmos 2285 Rocket 3.9 21:48:39 10° S 21:54:58 76° ESE 22:01:17 10° NNE
Spot 2 Rocket 3.5 21:56:56 16° S 22:00:58 79° WSW 22:06:02 10° NNW
Cosmos 1437 4.4 21:58:48 10° NNE 22:00:50 20° ENE 22:00:50 20° ENE
Cosmos 1452 Rocket 3.5 22:01:17 10° NNW 22:06:35 86° WSW 22:09:45 25° SSE
Cosmos 1420 Rocket 3.9 22:02:45 10° NNW 22:07:57 84° ENE 22:10:42 28° SSE
Cosmos 2266 Rocket 4.1 22:04:09 10° N 22:10:31 77° W 22:15:45 15° S
Palapa 6 Rocket 4.2 22:08:29 10° WSW 22:13:34 41° S 22:15:33 32° SE
In-Cosmos 22 4.2 22:10:36 10° S 22:16:03 79° W 22:21:41 10° N
Meteor 1-16 Rocket 4.4 22:12:58 10° NNW 22:18:34 73° W 22:22:24 22° S
H-2A R/B 2.1 22:21:14 38° SE 22:23:09 65° ENE 22:28:27 10° N
Nadezhda 2 Rocket 4.4 22:19:08 10° N 22:25:22 73° E 22:28:08 35° SSE
Cosmos 1315 Rocket 4.1 22:21:49 10° SSW 22:25:35 39° W 22:29:26 10° N
Cosmos 1674 2.6 22:25:41 62° E 22:25:41 62° E 22:29:28 10° NNE
MetOp-B 4.1 22:25:41 40° SSE 22:27:38 72° ENE 22:32:58 10° N
Cosmos-2242 3.0 22:27:10 10° N 22:31:32 65° E 22:31:59 60° ESE
OAO 3 Copernicus 4.4 22:29:45 10° WNW 22:34:49 71° NNE 22:36:22 43° E
Cosmos 1553 Rocket 3.9 22:33:39 40° SSE 22:35:47 64° E 22:41:47 10° NNE
Cosmos 2084 4.3 22:32:29 10° N 22:35:44 31° NE 22:35:44 31° NE
Hubble Space Telescope 3.0 22:36:26 10° WSW 22:37:50 14° SW 22:37:50 14° SW
Cosmos 494 Rocket 4.1 22:36:41 22° SSW 22:40:06 77° WNW 22:45:23 10° NNE
ATLAS 3B R/B 3.9 22:36:57 10° N 22:42:20 26° NE 22:44:26 22° E
Helios 1A 3.9 22:45:57 36° NE 22:45:57 36° NE 22:49:15 10° N
SPOT 5 3.2 22:47:50 49° E 22:48:05 50° ENE 22:53:06 10° N
DMSP B5D2-2 4.0 22:44:27 10° N 22:49:42 84° WNW 22:51:24 44° SSW
Cosmos 2278 Rocket 2.4 22:50:05 51° E 22:50:05 51° E 22:55:20 10° NNE
Cosmos 1726 3.5 22:47:43 10° N 22:50:03 32° NNE 22:50:03 32° NNE
Resurs 01 Rocket 4.4 22:51:37 10° WSW 22:53:03 11° W 22:54:29 10° WNW
Meteor 2-10 4.3 22:50:28 10° N 22:55:48 53° E 22:56:00 53° E
ARGOS 4.0 22:55:27 31° SSW 22:57:32 45° W 23:02:43 10° NNW
OAO 3 Rocket 4.0 22:53:14 10° WNW 22:58:01 47° N 22:59:32 35° NE
CZ-3 Stage 3 4.2 22:55:25 10° W 22:59:59 89° S 23:31:49 10° E
SEDSat Delta rocket 4.4 22:55:23 10° WSW 22:58:14 31° SW 22:58:14 31° SW
Helios 1B rocket 3.4 22:56:54 10° NNE 22:59:36 39° NNE 22:59:36 39° NNE
ATLAS 2AS CENTAUR R/B 4.3 22:55:47 10° WSW 23:02:55 40° NW 23:10:26 10° NNE
Cosmos 2251 Rocket 3.4 23:05:49 78° S 23:06:12 89° E 23:11:33 10° NNE
ERS-1 Rocket 3.2 23:06:46 57° SW 23:07:19 61° WSW 23:12:18 10° NNW
COSMOS 2406 3.4 23:02:39 10° N 23:08:18 56° ENE 23:08:28 56° ENE
Cosmos 1346 Rocket 3.9 23:04:45 10° NNW 23:08:19 39° W 23:08:19 39° W
CZ-2C R/B 4.1 23:09:46 38° ENE 23:09:46 38° ENE 23:14:59 10° N
Cosmos 2221 4.2 23:16:57 10° NNE 23:19:04 25° NNE 23:19:04 25° NNE
Cosmos 921 Rocket 4.1 23:22:27 10° NNW 23:26:03 42° WNW 23:26:03 42° WNW
USA 215 4.4 23:27:48 27° SW 23:28:42 28° SW 23:34:10 10° WNW
Aurora 2 Rocket 4.0 23:24:02 10° WSW 23:31:16 63° S 23:31:38 62° SSE
ATLAS 5 CENTAUR R/B 3.4 23:35:22 25° NNE 23:35:22 25° NNE 23:37:24 10° NNE
Landsat 7 4.4 23:33:45 54° NW 23:33:45 54° NW 23:37:34 10° NNW
Cosmos 1745 Rocket 4.0 23:31:03 10° N 23:37:18 70° W 23:37:41 68° WSW
NOSS 3-4 (A) 3.9 23:37:55 37° WSW 23:40:10 58° WNW 23:46:22 10° NNE
NOSS 3-4 (C) 3.9 23:38:08 39° WSW 23:40:16 58° WNW 23:46:28 10° NNE
Cosmos 2082 Rocket 3.9 23:39:34 10° NNE 23:43:22 22° NE 23:43:22 22° NE
Cosmos 1461 4.5 23:44:19 36° NW 23:44:19 36° NW 23:48:34 10° N
Cosmos 1833 Rocket 4.2 23:44:13 10° N 23:48:06 26° NE 23:48:06 26° NE
CENTAUR R/B 4.4 23:44:49 10° N 23:51:37 28° NE 23:54:15 24° ENE
Terra 2.9 23:53:44 42° NW 23:53:44 42° NW 23:56:57 10° NNW
